SCP
0 0 0 0 0 0 0 0 0 0 0 0 0 0 0 0 0 0 0 0 0 0 0 0 0 0 0 0 0 0 -0 0 0 0 0 0 0 0 0 0 0 0 0 0
0 0 0 0 0 0 0 0 0 0 0 0 0 0 0 0 0 0 0 0 0 0 0 0 0 0 0 0 0 0 0 0 0 0 0 0 0 0 0 0 0 0 0 0
0 0 0 0 0 0 0 0 0 0 0 0 0 0 0 0 0 0 0 0 0 0 0 0 0 0 0 0 0 0 0 1 0 0 0 0 0 0 0 0 0 0 0 0
0 0 0 0 0 -0 0 0 -0 0 0 0 0 0 0 0 0 -0 -0 -0 0 0 0 0 0 0 0 0 0 0 1 1 0 0 0 0 0 0 0 0 0 0 0 0
0 0 0 0 0 0 0 0 0 -0 -0 0 0 0 0 0 -0 -0 -0 -0 -0 0 0 0 0 0 0 0 0 0 1 0 0 0 0 0 0 0 0 0 0 0 0 0
0 0 0 0 0 0 0 0 0 -0 -0 -0 0 0 0 0 0 -0 -0 -0 -0 0 0 0 0 0 0 0 0 0 1 0 0 0 0 0 0 0 0 0 0 0 0 0
0 0 0 0 0 0 0 0 -0 0 0 0 0 -0 -0 -0 -0 -0 -0 -0 -0 0 0 0 0 0 0 0 0 0 0 0 0 0 0 0 0 0 0 0 0 0 0 0
0 0 0 0 0 0 0 0 0 0 0 0 0 0 0 -0 -0 -0 -0 -0 -0 0 0 0 0 0 0 0 0 0 0 0 0 0 0 0 0 0 0 0 0 0 0 0
0 0 0 0 0 0 0 0 0 0 -0 0 0 -0 0 -0 -0 -0 -0 -0 -0 -0 -0 0 0 0 0 0 0 0 0 0 0 0 0 0 0 -0 -0 0 0 0 0 0
0 0 0 0 0 0 0 0 0 0 0 0 0 0 0 -0 -0 -0 -0 -0 -0 0 0 0 0 0 0 0 0 0 0 0 0 0 0 0 0 -0 -0 -0 0 0 0 0
0 0 0 0 0 0 0 0 0 0 0 0 0 0 0 0 -0 -0 -0 -0 0 0 0 0 0 0 0 0 0 0 0 0 0 0 0 0 0 -0 0 0 -0 0 0 0
0 0 0 0 0 0 0 0 0 0 0 0 0 0 -0 0 0 0 -0 0 0 0 0 0 0 0 0 0 0 0 0 0 0 0 0 0 0 -0 -0 -0 -0 -0 -0 0
0 0 0 0 0 0 0 0 0 0 0 0 0 0 0 0 0 0 0 0 0 0 0 0 0 0 0 0 0 0 0 0 0 -0 -0 0 0 0 -0 -0 -0 -0 -0 -0
0 0 0 0 0 0 0 0 0 0 0 0 0 0 0 0 0 0 0 0 0 0 0 0 0 0 0 0 0 0 0 -0 -0 -0 -0 -0 -0 0 0 -0 -0 -0 -0 0
0 0 0 0 0 0 0 0 0 0 0 0 0 0 0 0 0 0 0 0 0 0 0 0 0 0 0 0 0 0 -0 0 -0 -0 -0 -0 -0 -0 0 0 0 0 0 0
0 0 0 0 0 0 0 0 0 0 0 0 0 0 0 0 0 0 0 0 0 0 0 0 0 0 0 0 0 0 0 -0 -0 -0 -0 -0 -0 -0 0 0 0 0 0 0
0 0 0 0 0 0 0 0 0 0 0 0 0 0 0 0 0 0 0 0 0 0 0 0 0 0 0 0 -0 -0 -0 -0 -0 -0 -0 -0 0 0 0 0 0 0 0 0
0 0 0 0 0 0 0 0 0 0 0 0 0 0 0 0 0 0 0 0 0 0 0 0 0 0 0 -0 -0 -0 -0 -0 -0 -0 -0 0 0 0 0 0 0 0 0 0
0 0 0 0 0 0 0 0 0 0 0 0 0 0 0 0 0 0 0 0 0 0 0 0 0 -0 -0 -0 -0 -0 -0 -0 -0 -0 -0 0 0 0 0 0 0 0 0 0
0 0 0 0 0 0 0 0 0 0 0 0 0 0 -0 0 0 0 0 0 0 0 0 0 0 -0 -0 -0 -0 -0 -0 -0 -0 -0 -0 0 0 0 0 -0 -0 -0 0 0
0 0 0 0 0 0 0 0 0 0 -0 0 0 0 0 0 0 0 0 0 0 0 0 0 0 0 0 -0 -0 -0 -0 -0 -0 -0 -0 -0 -0 0 0 0 0 0 0 -0
0 0 0 0 0 0 0 0 0 -0 -0 -0 -0 0 0 0 0 0 0 0 0 0 0 0 0 0 0 0 0 -0 -0 -0 -0 -0 -0 -0 0 -0 0 0 0 -0 -0 0
0 0 0 0 0 0 -0 -0 -0 -0 -0 -0 -0 -0 -0 -0 -0 -0 -0 -0 -0 -0 -0 -0 -0 0 0 0 -0 -0 -0 -0 -0 -0 -0 -0 -0 -0 0 0 0 0 0 0
0 0 0 0 0 0 0 0 -0 -0 -0 0 0 -0 0 -0 -0 -0 -0 -0 -0 -0 -0 -0 -0 0 -0 -0 -0 -0 -0 -0 -0 0 0 0 0 0 0 0 0 0 0 0
0 0 0 0 0 0 -0 0 0 0 -0 0 0 0 0 0 0 0 0 0 0 0 0 0 0 0 -0 -0 -0 -0 -0 -0 0 0 0 0 0 0 0 0 0 0 0 0
0 0 0 0 -0 0 -0 -0 -0 -0 0 0 0 0 0 0 0 0 0 0 0 0 -0 0 0 0 0 -0 0 -0 -0 -0 0 0 0 0 0 0 0 -0 -0 0 0 0
Wind_Speed_500mb
9 9 10 17 17 26 31 33 42 46 37 27 34 40 46 43 38 40 49 50 55 58 54 45 40 43 45 38 34 37 39 32 36 54 59 73 71 95 82 96 78 69 74 71
11 6 17 25 19 28 34 40 45 27 7 26 31 42 34 23 29 33 26 33 40 44 45 41 37 35 37 37 32 33 36 28 33 38 46 68 68 70 83 82 71 77 69 67
9 13 20 16 21 32 35 37 34 33 40 40 35 24 11 11 19 38 42 34 30 28 35 37 35 31 28 32 29 27 26 25 32 47 58 67 52 72 83 78 66 77 75 68
4 11 18 24 27 37 37 23 47 48 30 12 5 5 22 30 28 42 54 53 47 40 34 29 31 29 28 28 22 25 21 29 33 48 45 49 63 72 70 72 89 89 82 71
12 17 22 21 34 43 27 55 49 45 31 20 14 12 10 31 50 58 56 73 62 46 37 32 28 25 27 30 15 21 15 16 30 48 45 44 45 67 65 58 83 80 73 68
10 20 8 13 35 35 46 41 26 4 7 7 3 7 9 22 46 56 62 81 68 45 29 24 21 20 24 20 14 26 21 17 18 34 38 38 46 55 48 63 64 64 67 62
21 10 16 16 33 27 36 38 10 5 7 9 21 6 11 39 52 42 57 88 30 10 10 9 4 9 17 17 17 34 31 29 33 27 17 18 21 10 37 49 66 56 54 57
13 9 17 24 24 37 35 20 8 8 10 10 14 17 6 45 57 59 81 47 36 25 20 20 20 13 10 17 38 47 50 52 50 38 35 24 26 18 4 5 44 49 42 44
13 9 12 18 15 41 23 25 14 7 12 7 8 14 3 56 61 76 80 66 55 50 40 35 37 37 44 55 61 60 58 60 59 48 52 45 36 31 10 30 38 40 31 31
5 14 8 7 13 33 18 21 4 7 11 9 10 9 21 54 55 59 60 73 66 64 57 50 49 52 58 61 72 71 72 76 85 81 78 80 74 68 50 54 62 61 61 47
8 2 17 8 25 39 28 18 9 3 8 7 9 8 19 34 35 45 50 71 63 64 57 56 59 62 71 72 80 84 87 88 88 83 80 84 79 64 66 66 61 61 61 52
4 6 10 5 8 33 43 25 10 7 9 7 7 8 27 32 38 51 60 66 66 64 60 61 64 73 80 85 91 95 93 93 90 87 84 91 83 75 73 74 75 70 70 67
14 8 13 5 3 22 30 42 29 2 2 17 9 6 29 44 46 57 57 68 66 66 63 68 74 85 83 89 97 92 100 100 97 91 90 89 89 79 76 80 76 75 74 73
2 5 7 14 8 13 31 42 40 17 9 7 9 29 38 41 39 53 68 66 64 61 61 69 79 84 88 85 99 99 102 96 92 94 93 95 93 92 84 80 79 79 75 76
5 9 3 1 7 21 28 29 34 32 17 8 17 20 33 31 33 47 48 61 57 64 71 71 76 82 84 93 103 105 104 98 97 99 96 95 89 84 82 80 79 77 72 72
8 2 1 5 6 11 32 32 27 21 17 6 14 14 24 31 40 56 61 55 55 60 63 70 81 79 88 99 103 103 100 98 96 98 96 91 87 84 82 77 77 76 77 72
11 6 5 10 6 8 14 24 27 15 18 6 17 12 22 22 38 44 48 50 54 54 64 76 75 82 90 94 97 100 98 95 97 97 93 89 86 85 82 79 75 74 71 66
10 2 4 4 8 20 7 5 10 21 16 15 7 9 8 9 31 46 48 47 51 59 67 68 76 84 87 91 94 91 91 92 91 90 86 82 78 79 75 71 71 69 63 62
9 6 5 4 7 6 6 2 3 5 15 13 8 8 2 15 9 38 43 46 49 56 63 72 76 80 82 85 85 87 89 87 85 84 81 76 72 71 67 68 67 65 61 60
5 0 3 2 6 4 4 6 8 4 13 7 11 14 13 9 15 6 33 41 48 53 60 66 70 73 75 78 77 79 82 79 81 75 71 66 64 65 67 66 64 59 54 54
3 4 4 3 3 6 4 7 14 3 9 17 7 11 24 11 9 17 27 37 47 54 58 62 67 74 74 71 71 78 74 76 70 65 63 63 62 62 59 58 55 53 50 48
3 2 3 3 2 2 12 12 7 16 29 27 21 21 29 27 27 29 34 40 45 51 55 59 64 68 68 63 62 69 71 66 60 57 58 57 55 54 52 49 49 46 45 45
3 6 1 8 1 1 12 13 22 35 47 35 31 30 29 30 30 31 34 38 43 48 53 57 61 63 63 61 58 63 64 55 53 53 55 53 51 49 47 45 45 45 43 40
9 10 4 3 6 8 16 30 38 38 37 39 34 34 32 35 34 36 37 39 43 46 50 52 53 56 58 55 54 56 53 48 46 49 49 46 44 44 42 41 39 35 35 38
2 19 11 6 4 6 24 37 44 43 39 39 36 34 35 36 37 36 39 40 42 43 44 44 45 49 52 49 48 47 42 38 38 42 44 43 41 38 35 31 30 31 37 40
25 16 13 9 46 22 44 64 57 53 51 48 47 46 39 35 37 39 40 40 40 41 40 38 38 40 43 42 42 42 38 32 31 35 36 36 34 32 31 30 31 33 33 38
Wind_Direction_500mb
13 292 303 352 320 296 294 284 284 282 289 285 282 286 291 302 294 280 272 266 263 266 273 275 272 265 264 269 278 260 235 236 254 233 227 228 216 222 205 208 215 217 221 216
334 25 7 333 316 290 287 296 292 287 274 294 294 293 307 28 36 18 345 304 274 271 272 271 272 270 264 270 279 251 222 225 261 231 216 223 212 211 229 214 215 224 223 226
319 333 342 300 326 330 309 298 292 297 310 291 272 263 57 28 23 10 5 346 327 309 287 272 270 266 256 264 280 234 211 213 248 225 218 210 221 208 205 225 232 233 231 232
311 321 325 334 329 337 310 316 307 293 297 277 19 287 51 356 353 351 345 339 325 311 299 286 268 263 239 251 270 214 205 215 225 223 209 216 214 213 221 231 222 222 229 231
350 318 327 326 341 329 301 308 303 289 272 264 239 223 41 14 353 343 336 328 316 304 297 291 281 256 227 242 246 212 211 197 220 195 206 221 220 229 223 225 221 219 228 235
303 296 270 330 333 329 340 319 311 344 192 186 205 252 44 16 346 336 332 320 310 291 284 280 274 237 217 227 207 188 169 152 176 186 199 213 221 217 229 230 223 228 231 232
329 285 339 312 329 341 354 352 6 53 13 40 6 31 64 5 352 339 326 318 335 278 271 290 302 179 196 191 157 165 139 125 161 167 169 114 23 105 215 203 203 213 218 230
342 351 10 346 23 342 351 11 18 7 357 329 351 6 76 5 342 339 344 349 51 60 66 81 91 105 158 125 154 146 128 124 116 116 123 120 90 13 342 211 195 211 214 211
338 298 332 40 27 14 340 3 312 261 225 251 20 8 165 349 346 350 347 6 27 37 45 67 86 94 117 132 123 120 116 128 113 111 108 108 89 77 108 141 133 138 168 158
329 292 15 31 346 26 6 353 3 5 12 10 31 46 346 346 341 338 347 352 16 27 34 58 88 101 117 124 115 117 115 109 109 104 99 100 94 85 93 96 100 101 102 102
307 222 327 4 23 21 12 12 348 285 10 350 333 57 2 345 341 334 339 350 11 23 30 48 75 96 106 112 113 114 115 116 110 107 108 103 100 91 100 96 94 94 96 97
336 294 312 17 198 33 31 9 349 344 15 17 295 74 18 356 349 345 345 355 11 25 35 51 66 81 90 105 107 107 106 107 106 106 107 103 103 107 100 99 99 99 98 100
344 7 333 149 179 35 25 15 19 76 38 25 339 21 7 359 356 352 359 3 14 25 36 51 61 72 78 91 104 100 107 106 107 108 105 103 102 104 102 102 104 101 100 98
351 46 39 50 44 351 15 22 26 42 49 335 23 321 348 359 351 352 1 7 15 26 36 49 62 71 81 85 100 101 102 104 105 104 104 103 102 103 103 100 98 97 95 92
41 40 80 197 287 50 44 28 28 48 26 33 340 5 358 356 347 354 9 11 16 27 39 47 62 73 84 89 99 102 103 105 104 103 101 98 99 98 98 97 94 95 93 92
3 57 193 140 272 253 45 31 33 43 20 19 360 39 355 358 11 11 7 9 18 27 38 59 76 77 86 93 98 101 102 100 100 98 98 99 98 97 96 96 95 95 94 92
349 335 1 40 26 195 23 18 30 59 32 317 40 339 342 12 29 9 1 15 26 34 49 71 78 83 92 95 99 99 101 102 99 99 99 98 97 96 95 93 92 90 89 90
323 6 6 348 324 42 334 102 161 71 51 36 58 7 358 89 53 30 35 35 46 60 74 79 83 88 93 97 99 100 100 98 97 96 96 94 93 93 93 92 89 89 88 85
207 305 62 40 37 139 212 350 343 360 19 14 352 4 318 206 201 47 46 56 63 72 80 87 91 95 97 96 98 98 96 96 95 94 94 95 95 95 94 92 89 88 87 86
171 288 293 108 77 61 123 166 186 194 45 26 17 8 358 176 96 29 50 71 82 87 93 96 97 98 99 99 100 99 98 97 94 94 94 95 95 93 91 89 89 88 85 82
344 19 58 104 107 260 148 151 157 176 179 162 133 75 62 59 62 100 87 90 92 95 97 101 103 100 99 101 102 99 99 95 95 96 95 93 90 89 90 91 88 82 79 77
216 168 152 127 159 222 147 133 213 138 137 151 144 125 116 114 108 101 99 100 102 104 107 106 105 104 103 101 100 98 95 97 99 100 99 98 97 94 91 88 86 80 74 67
225 212 199 221 341 178 200 239 153 147 153 162 154 145 135 125 120 116 112 113 112 112 110 109 107 106 105 105 102 101 102 104 103 100 97 94 91 89 87 82 76 70 64 60
217 166 195 224 186 200 164 153 158 157 159 159 159 154 149 140 135 129 126 123 121 119 118 116 115 113 110 106 102 99 101 101 99 95 93 88 83 78 72 68 65 61 58 50
105 158 167 247 185 187 214 189 172 169 170 168 166 163 157 152 145 141 138 135 132 129 126 127 124 119 115 111 104 99 98 98 95 91 85 79 73 70 70 69 66 58 49 41
189 177 180 207 183 181 196 183 182 182 179 177 173 169 169 165 157 153 150 147 145 142 140 138 131 126 122 119 113 108 101 93 85 87 86 83 77 71 66 61 55 48 40 32
Wind_Speed_850mb
9 9 10 17 17 26 31 33 42 46 37 27 34 40 46 43 38 40 49 50 55 58 54 45 40 43 45 38 34 37 39 32 36 54 59 73 71 95 82 96 78 69 74 71
11 6 17 25 19 28 34 40 45 27 7 26 31 42 34 23 29 33 26 33 40 44 45 41 37 35 37 37 32 33 36 28 33 38 46 68 68 70 83 82 71 77 69 67
9 13 20 16 21 32 35 37 34 33 40 40 35 24 11 11 19 38 42 34 30 28 35 37 35 31 28 32 29 27 26 25 32 47 58 67 52 72 83 78 66 77 75 68
4 11 18 24 27 37 37 23 47 48 30 12 5 5 22 30 28 42 54 53 47 40 34 29 31 29 28 28 22 25 21 29 33 48 45 49 63 72 70 72 89 89 82 71
12 17 22 21 34 43 27 55 49 45 31 20 14 12 10 31 50 58 56 73 62 46 37 32 28 25 27 30 15 21 15 16 30 48 45 44 45 67 65 58 83 80 73 68
10 20 8 13 35 35 46 41 26 4 7 7 3 7 9 22 46 56 62 81 68 45 29 24 21 20 24 20 14 26 21 17 18 34 38 38 46 55 48 63 64 64 67 62
21 10 16 16 33 27 36 38 10 5 7 9 21 6 11 39 52 42 57 88 30 10 10 9 4 9 17 17 17 34 31 29 33 27 17 18 21 10 37 49 66 56 54 57
13 9 17 24 24 37 35 20 8 8 10 10 14 17 6 45 57 59 81 47 36 25 20 20 20 13 10 17 38 47 50 52 50 38 35 24 26 18 4 5 44 49 42 44
13 9 12 18 15 41 23 25 14 7 12 7 8 14 3 56 61 76 80 66 55 50 40 35 37 37 44 55 61 60 58 60 59 48 52 45 36 31 10 30 38 40 31 31
5 14 8 7 13 33 18 21 4 7 11 9 10 9 21 54 55 59 60 73 66 64 57 50 49 52 58 61 72 71 72 76 85 81 78 80 74 68 50 54 62 61 61 47
8 2 17 8 25 39 28 18 9 3 8 7 9 8 19 34 35 45 50 71 63 64 57 56 59 62 71 72 80 84 87 88 88 83 80 84 79 64 66 66 61 61 61 52
4 6 10 5 8 33 43 25 10 7 9 7 7 8 27 32 38 51 60 66 66 64 60 61 64 73 80 85 91 95 93 93 90 87 84 91 83 75 73 74 75 70 70 67
14 8 13 5 3 22 30 42 29 2 2 17 9 6 29 44 46 57 57 68 66 66 63 68 74 85 83 89 97 92 100 100 97 91 90 89 89 79 76 80 76 75 74 73
2 5 7 14 8 13 31 42 40 17 9 7 9 29 38 41 39 53 68 66 64 61 61 69 79 84 88 85 99 99 102 96 92 94 93 95 93 92 84 80 79 79 75 76
5 9 3 1 7 21 28 29 34 32 17 8 17 20 33 31 33 47 48 61 57 64 71 71 76 82 84 93 103 105 104 98 97 99 96 95 89 84 82 80 79 77 72 72
8 2 1 5 6 11 32 32 27 21 17 6 14 14 24 31 40 56 61 55 55 60 63 70 81 79 88 99 103 103 100 98 96 98 96 91 87 84 82 77 77 76 77 72
11 6 5 10 6 8 14 24 27 15 18 6 17 12 22 22 38 44 48 50 54 54 64 76 75 82 90 94 97 100 98 95 97 97 93 89 86 85 82 79 75 74 71 66
10 2 4 4 8 20 7 5 10 21 16 15 7 9 8 9 31 46 48 47 51 59 67 68 76 84 87 91 94 91 91 92 91 90 86 82 78 79 75 71 71 69 63 62
9 6 5 4 7 6 6 2 3 5 15 13 8 8 2 15 9 38 43 46 49 56 63 72 76 80 82 85 85 87 89 87 85 84 81 76 72 71 67 68 67 65 61 60
5 0 3 2 6 4 4 6 8 4 13 7 11 14 13 9 15 6 33 41 48 53 60 66 70 73 75 78 77 79 82 79 81 75 71 66 64 65 67 66 64 59 54 54
3 4 4 3 3 6 4 7 14 3 9 17 7 11 24 11 9 17 27 37 47 54 58 62 67 74 74 71 71 78 74 76 70 65 63 63 62 62 59 58 55 53 50 48
3 2 3 3 2 2 12 12 7 16 29 27 21 21 29 27 27 29 34 40 45 51 55 59 64 68 68 63 62 69 71 66 60 57 58 57 55 54 52 49 49 46 45 45
3 6 1 8 1 1 12 13 22 35 47 35 31 30 29 30 30 31 34 38 43 48 53 57 61 63 63 61 58 63 64 55 53 53 55 53 51 49 47 45 45 45 43 40
9 10 4 3 6 8 16 30 38 38 37 39 34 34 32 35 34 36 37 39 43 46 50 52 53 56 58 55 54 56 53 48 46 49 49 46 44 44 42 41 39 35 35 38
2 19 11 6 4 6 24 37 44 43 39 39 36 34 35 36 37 36 39 40 42 43 44 44 45 49 52 49 48 47 42 38 38 42 44 43 41 38 35 31 30 31 37 40
25 16 13 9 46 22 44 64 57 53 51 48 47 46 39 35 37 39 40 40 40 41 40 38 38 40 43 42 42 42 38 32 31 35 36 36 34 32 31 30 31 33 33 38
Wind_Direction_850mb
13 292 303 352 320 296 294 284 284 282 289 285 282 286 291 302 294 280 272 266 263 266 273 275 272 265 264 269 278 260 235 236 254 233 227 228 216 222 205 208 215 217 221 216
334 25 7 333 316 290 287 296 292 287 274 294 294 293 307 28 36 18 345 304 274 271 272 271 272 270 264 270 279 251 222 225 261 231 216 223 212 211 229 214 215 224 223 226
319 333 342 300 326 330 309 298 292 297 310 291 272 263 57 28 23 10 5 346 327 309 287 272 270 266 256 264 280 234 211 213 248 225 218 210 221 208 205 225 232 233 231 232
311 321 325 334 329 337 310 316 307 293 297 277 19 287 51 356 353 351 345 339 325 311 299 286 268 263 239 251 270 214 205 215 225 223 209 216 214 213 221 231 222 222 229 231
350 318 327 326 341 329 301 308 303 289 272 264 239 223 41 14 353 343 336 328 316 304 297 291 281 256 227 242 246 212 211 197 220 195 206 221 220 229 223 225 221 219 228 235
303 296 270 330 333 329 340 319 311 344 192 186 205 252 44 16 346 336 332 320 310 291 284 280 274 237 217 227 207 188 169 152 176 186 199 213 221 217 229 230 223 228 231 232
329 285 339 312 329 341 354 352 6 53 13 40 6 31 64 5 352 339 326 318 335 278 271 290 302 179 196 191 157 165 139 125 161 167 169 114 23 105 215 203 203 213 218 230
342 351 10 346 23 342 351 11 18 7 357 329 351 6 76 5 342 339 344 349 51 60 66 81 91 105 158 125 154 146 128 124 116 116 123 120 90 13 342 211 195 211 214 211
338 298 332 40 27 14 340 3 312 261 225 251 20 8 165 349 346 350 347 6 27 37 45 67 86 94 117 132 123 120 116 128 113 111 108 108 89 77 108 141 133 138 168 158
329 292 15 31 346 26 6 353 3 5 12 10 31 46 346 346 341 338 347 352 16 27 34 58 88 101 117 124 115 117 115 109 109 104 99 100 94 85 93 96 100 101 102 102
307 222 327 4 23 21 12 12 348 285 10 350 333 57 2 345 341 334 339 350 11 23 30 48 75 96 106 112 113 114 115 116 110 107 108 103 100 91 100 96 94 94 96 97
336 294 312 17 198 33 31 9 349 344 15 17 295 74 18 356 349 345 345 355 11 25 35 51 66 81 90 105 107 107 106 107 106 106 107 103 103 107 100 99 99 99 98 100
344 7 333 149 179 35 25 15 19 76 38 25 339 21 7 359 356 352 359 3 14 25 36 51 61 72 78 91 104 100 107 106 107 108 105 103 102 104 102 102 104 101 100 98
351 46 39 50 44 351 15 22 26 42 49 335 23 321 348 359 351 352 1 7 15 26 36 49 62 71 81 85 100 101 102 104 105 104 104 103 102 103 103 100 98 97 95 92
41 40 80 197 287 50 44 28 28 48 26 33 340 5 358 356 347 354 9 11 16 27 39 47 62 73 84 89 99 102 103 105 104 103 101 98 99 98 98 97 94 95 93 92
3 57 193 140 272 253 45 31 33 43 20 19 360 39 355 358 11 11 7 9 18 27 38 59 76 77 86 93 98 101 102 100 100 98 98 99 98 97 96 96 95 95 94 92
349 335 1 40 26 195 23 18 30 59 32 317 40 339 342 12 29 9 1 15 26 34 49 71 78 83 92 95 99 99 101 102 99 99 99 98 97 96 95 93 92 90 89 90
323 6 6 348 324 42 334 102 161 71 51 36 58 7 358 89 53 30 35 35 46 60 74 79 83 88 93 97 99 100 100 98 97 96 96 94 93 93 93 92 89 89 88 85
207 305 62 40 37 139 212 350 343 360 19 14 352 4 318 206 201 47 46 56 63 72 80 87 91 95 97 96 98 98 96 96 95 94 94 95 95 95 94 92 89 88 87 86
171 288 293 108 77 61 123 166 186 194 45 26 17 8 358 176 96 29 50 71 82 87 93 96 97 98 99 99 100 99 98 97 94 94 94 95 95 93 91 89 89 88 85 82
344 19 58 104 107 260 148 151 157 176 179 162 133 75 62 59 62 100 87 90 92 95 97 101 103 100 99 101 102 99 99 95 95 96 95 93 90 89 90 91 88 82 79 77
216 168 152 127 159 222 147 133 213 138 137 151 144 125 116 114 108 101 99 100 102 104 107 106 105 104 103 101 100 98 95 97 99 100 99 98 97 94 91 88 86 80 74 67
225 212 199 221 341 178 200 239 153 147 153 162 154 145 135 125 120 116 112 113 112 112 110 109 107 106 105 105 102 101 102 104 103 100 97 94 91 89 87 82 76 70 64 60
217 166 195 224 186 200 164 153 158 157 159 159 159 154 149 140 135 129 126 123 121 119 118 116 115 113 110 106 102 99 101 101 99 95 93 88 83 78 72 68 65 61 58 50
105 158 167 247 185 187 214 189 172 169 170 168 166 163 157 152 145 141 138 135 132 129 126 127 124 119 115 111 104 99 98 98 95 91 85 79 73 70 70 69 66 58 49 41
189 177 180 207 183 181 196 183 182 182 179 177 173 169 169 165 157 153 150 147 145 142 140 138 131 126 122 119 113 108 101 93 85 87 86 83 77 71 66 61 55 48 40 32